sat.trackr.live / text

‹ back to catalog

STARLINK-2255

NORAD 48597 · 2021-041AW

PAYLOAD ACTIVE UNKNOWN

§ Identity

Operator
Country
US
Launch date
2021-05-15
Launch site
AFETR
Launch vehicle
Mass (kg)
RCS (m²)

Purposes: comms

External: N2YO · Heavens-Above · Gunter

§ Orbital elements

Epoch: 2026-09-19T20:48:07.983648Z

Period
94.01 min
Inclination
53.1606°
Eccentricity
0.0001347
Mean motion
15.31694302 rev/d
Perigee alt
469.8 km
Apogee alt
471.7 km
Semi-major
6,848.9 km
B*
1.7372e-5
RAAN
315.8539°
Arg perigee
90.9463°
Mean anomaly
269.1693°
Rev number
29,611

§ Raw data

STARLINK-22551 48597U 21041AW  26262.86675907  .00000174  00000+0  17372-4 0  99922 48597  53.1606 315.8539 0001347  90.9463 269.1693 15.31694302296115

JSON: /api/v1/satellites/48597 · /tle

For live sub-satellite position, see the globe view (requires WebGL).

§ Visibility from observer

Set your observer location to see the next 7 days of passes ≥ 10°. The values pass through the URL so the page stays shareable.

No JS? Fill the form by hand. The geolocation button needs JavaScript.